| time (UTC) | temp C | wind direction | speed KPH | gust KPH | rain 1hr cm | rain 24hr cm | rain mn cm | humidity % | barometer mb |
| 20260904171548 | 32 | 261 | 8.0 | 20.9 | 0.00 | 0.00 | 0.00 | 37 | 999.9 |
| 20260904170139 | 32 | 249 | 11.3 | 24.1 | 0.00 | 0.00 | 0.00 | 38 | 1000.1 |
| 20260904164537 | 32 | 279 | 14.5 | 25.7 | 0.00 | 0.00 | 0.00 | 39 | 1000.0 |
| 20260904163049 | 31 | 305 | 14.5 | 30.6 | 0.00 | 0.00 | 0.00 | 40 | 1000.1 |
| 20260904161529 | 31 | 263 | 17.7 | 27.4 | 0.00 | 0.00 | 0.00 | 42 | 1000.0 |
| 20260904160026 | 30 | 299 | 12.9 | 22.5 | 0.00 | 0.00 | 0.00 | 45 | 1000.0 |
| 20260904154528 | 30 | 305 | 20.9 | 29.0 | 0.00 | 0.00 | 0.00 | 46 | 999.9 |
| 20260904153048 | 29 | 275 | 25.7 | 32.2 | 0.00 | 0.00 | 0.00 | 47 | 999.8 |
| 20260904151523 | 28 | 257 | 22.5 | 33.8 | 0.00 | 0.00 | 0.00 | 48 | 999.8 |
| 20260904150015 | 28 | 282 | 27.4 | 37.0 | 0.00 | 0.00 | 0.00 | 50 | 999.8 |
| 20260904144511 | 27 | 275 | 24.1 | 37.0 | 0.00 | 0.00 | 0.00 | 52 | 999.9 |
| 20260904143009 | 26 | 262 | 20.9 | 29.0 | 0.00 | 0.00 | 0.00 | 53 | 1000.0 |
| 20260904141533 | 26 | 261 | 24.1 | 30.6 | 0.00 | 0.00 | 0.00 | 53 | 1000.0 |
| 20260904140040 | 26 | 242 | 22.5 | 29.0 | 0.00 | 0.00 | 0.00 | 54 | 999.9 |
| 20260904134507 | 25 | 240 | 19.3 | 24.1 | 0.00 | 0.00 | 0.00 | 57 | 999.9 |
| 20260904133040 | 25 | 230 | 19.3 | 25.7 | 0.00 | 0.00 | 0.00 | 59 | 999.8 |
| 20260904131519 | 24 | 241 | 19.3 | 25.7 | 0.00 | 0.00 | 0.00 | 60 | 999.4 |
| 20260904130013 | 25 | 241 | 19.3 | 24.1 | 0.00 | 0.00 | 0.00 | 58 | 999.2 |
| 20260904124510 | 25 | 241 | 17.7 | 22.5 | 0.00 | 0.00 | 0.00 | 59 | 999.2 |
| 20260904123113 | 25 | 236 | 19.3 | 24.1 | 0.00 | 0.00 | 0.00 | 59 | 999.1 |
| 20260904121601 | 25 | 243 | 19.3 | 25.7 | 0.00 | 0.00 | 0.00 | 58 | 998.8 |
| 20260904114554 | 25 | 265 | 19.3 | 24.1 | 0.00 | 0.00 | 0.00 | 58 | 998.7 |
| 20260904113059 | 25 | 277 | 17.7 | 27.4 | 0.00 | 0.00 | 0.00 | 57 | 998.4 |
| 20260904111552 | 25 | 248 | 20.9 | 33.8 | 0.00 | 0.00 | 0.00 | 53 | 998.5 |
| 20260904110056 | 25 | 254 | 20.9 | 29.0 | 0.00 | 0.00 | 0.00 | 52 | 998.3 |
| 20260904104559 | 25 | 254 | 20.9 | 30.6 | 0.00 | 0.00 | 0.00 | 52 | 998.2 |
| 20260904103058 | 25 | 250 | 24.1 | 30.6 | 0.00 | 0.00 | 0.00 | 55 | 998.0 |
| 20260904101607 | 25 | 250 | 20.9 | 25.7 | 0.00 | 0.00 | 0.00 | 57 | 997.9 |
| 20260904100059 | 25 | 245 | 19.3 | 25.7 | 0.00 | 0.00 | 0.00 | 56 | 997.8 |
| 20260904094551 | 25 | 251 | 12.9 | 17.7 | 0.00 | 0.00 | 0.00 | 54 | 997.7 |
| 20260904093104 | 26 | 254 | 16.1 | 17.7 | 0.00 | 0.00 | 0.00 | 53 | 997.7 |
| 20260904091539 | 26 | 275 | 14.5 | 17.7 | 0.00 | 0.00 | 0.00 | 52 | 997.7 |
| 20260904090047 | 26 | 262 | 11.3 | 14.5 | 0.00 | 0.00 | 0.00 | 51 | 997.6 |
| 20260904084535 | 27 | 259 | 9.7 | 12.9 | 0.00 | 0.00 | 0.00 | 49 | 997.7 |
| 20260904083030 | 27 | 268 | 9.7 | 14.5 | 0.00 | 0.00 | 0.00 | 48 | 997.8 |
| 20260904081530 | 27 | 267 | 11.3 | 14.5 | 0.00 | 0.00 | 0.00 | 47 | 997.9 |
| 20260904080029 | 27 | 286 | 12.9 | 16.1 | 0.00 | 0.00 | 0.00 | 47 | 998.0 |
| 20260904074530 | 27 | 275 | 14.5 | 20.9 | 0.00 | 0.00 | 0.00 | 47 | 998.2 |
| 20260904073040 | 28 | 244 | 14.5 | 20.9 | 0.00 | 0.00 | 0.00 | 46 | 998.4 |
| 20260904071600 | 28 | 248 | 16.1 | 22.5 | 0.00 | 0.00 | 0.00 | 45 | 998.3 |
| 20260904070056 | 28 | 189 | 6.4 | 16.1 | 0.00 | 0.00 | 0.00 | 45 | 998.3 |
| 20260904064543 | 28 | 242 | 16.1 | 17.7 | 0.00 | 0.00 | 0.00 | 44 | 998.5 |
| 20260904063048 | 28 | 254 | 3.2 | 4.8 | 0.00 | 0.00 | 0.00 | 47 | 998.4 |
| 20260904061553 | 28 | 74 | 6.4 | 9.7 | 0.00 | 0.00 | 0.00 | 46 | 998.7 |
| 20260904060041 | 28 | 29 | 9.7 | 12.9 | 0.00 | 0.00 | 0.00 | 45 | 998.6 |
| 20260904054557 | 28 | 310 | 11.3 | 16.1 | 0.00 | 0.00 | 0.00 | 46 | 998.5 |
| 20260904053002 | 29 | 282 | 1.6 | 9.7 | 0.00 | 0.00 | 0.00 | 44 | 998.2 |
| 20260904051508 | 29 | 83 | 3.2 | 9.7 | 0.00 | 0.00 | 0.00 | 45 | 998.0 |
| 20260904050101 | 29 | 138 | 11.3 | 17.7 | 0.00 | 0.00 | 0.00 | 44 | 998.0 |
| 20260904050003 | 29 | 140 | 11.3 | 19.3 | 0.00 | 0.00 | 0.00 | 44 | 998.0 |
| 20260904044610 | 30 | 160 | 20.9 | 25.7 | 0.00 | 0.00 | 0.00 | 43 | 997.8 |
| 20260904043023 | 29 | 170 | 17.7 | 25.7 | 0.00 | 0.00 | 0.00 | 44 | 997.7 |
| 20260904041527 | 29 | 185 | 11.3 | 14.5 | 0.00 | 0.00 | 0.00 | 44 | 997.7 |
| 20260904040033 | 29 | 156 | 9.7 | 16.1 | 0.00 | 0.00 | 0.00 | 44 | 997.8 |
| 20260904034546 | 29 | 227 | 12.9 | 20.9 | 0.00 | 0.00 | 0.00 | 45 | 997.9 |
| 20260904033016 | 30 | 133 | 16.1 | 22.5 | 0.00 | 0.00 | 0.00 | 43 | 997.6 |
| 20260904031516 | 30 | 105 | 16.1 | 24.1 | 0.00 | 0.00 | 0.00 | 42 | 997.5 |
| 20260904030028 | 30 | 104 | 14.5 | 29.0 | 0.00 | 0.00 | 0.00 | 41 | 997.5 |
| 20260904024528 | 30 | 103 | 24.1 | 45.1 | 0.00 | 0.00 | 0.00 | 40 | 997.1 |
| 20260904023034 | 31 | 95 | 27.4 | 53.1 | 0.00 | 0.00 | 0.00 | 38 | 996.9 |
| 20260904021520 | 33 | 140 | 6.4 | 11.3 | 0.00 | 0.00 | 0.00 | 30 | 996.3 |
| 20260904020026 | 33 | 237 | 3.2 | 8.0 | 0.00 | 0.00 | 0.00 | 30 | 996.1 |
| 20260904014532 | 33 | 267 | 9.7 | 14.5 | 0.00 | 0.00 | 0.00 | 31 | 995.9 |
| 20260904013049 | 33 | 252 | 8.0 | 12.9 | 0.00 | 0.00 | 0.00 | 32 | 995.8 |
| 20260904011606 | 33 | 265 | 4.8 | 6.4 | 0.00 | 0.00 | 0.00 | 33 | 995.6 |
| 20260904010059 | 33 | 317 | 4.8 | 9.7 | 0.00 | 0.00 | 0.00 | 32 | 995.6 |
| 20260904004548 | 33 | 296 | 6.4 | 14.5 | 0.00 | 0.00 | 0.00 | 33 | 995.5 |
| 20260904003054 | 34 | 268 | 11.3 | 19.3 | 0.00 | 0.00 | 0.00 | 31 | 995.6 |
| 20260904001531 | 35 | 344 | 8.0 | 14.5 | 0.00 | 0.00 | 0.00 | 29 | 995.5 |
| 20260904000039 | 35 | 341 | 11.3 | 16.1 | 0.00 | 0.00 | 0.00 | 29 | 995.3 |
| 20260903234539 | 36 | 18 | 6.4 | 16.1 | 0.00 | 0.00 | 0.00 | 27 | 995.3 |
| 20260903231559 | 36 | 311 | 14.5 | 22.5 | 0.00 | 0.00 | 0.00 | 28 | 995.5 |
| 20260903230057 | 36 | 146 | 11.3 | 25.7 | 0.00 | 0.00 | 0.00 | 28 | 995.4 |
| 20260903224558 | 35 | 182 | 17.7 | 24.1 | 0.00 | 0.00 | 0.00 | 28 | 995.6 |
| 20260903223035 | 34 | 167 | 30.6 | 40.2 | 0.00 | 0.00 | 0.00 | 30 | 995.7 |
| 20260903221508 | 34 | 149 | 40.2 | 56.3 | 0.00 | 0.00 | 0.00 | 31 | 995.6 |
| 20260903220009 | 36 | 212 | 14.5 | 24.1 | 0.00 | 0.00 | 0.00 | 27 | 995.7 |
| 20260903214508 | 35 | 279 | 19.3 | 29.0 | 0.00 | 0.00 | 0.00 | 28 | 995.6 |
| 20260903213033 | 34 | 306 | 25.7 | 33.8 | 0.00 | 0.00 | 0.00 | 30 | 995.8 |
| 20260903211519 | 34 | 296 | 29.0 | 43.5 | 0.00 | 0.00 | 0.00 | 30 | 996.1 |
| 20260903210014 | 36 | 304 | 17.7 | 40.2 | 0.00 | 0.00 | 0.00 | 28 | 996.1 |
| 20260903204519 | 36 | 205 | 16.1 | 27.4 | 0.00 | 0.00 | 0.00 | 25 | 996.1 |
| 20260903203011 | 36 | 221 | 11.3 | 20.9 | 0.00 | 0.00 | 0.00 | 25 | 996.2 |
| 20260903201502 | 36 | 334 | 19.3 | 22.5 | 0.00 | 0.00 | 0.00 | 27 | 996.3 |
| 20260903200101 | 36 | 232 | 9.7 | 24.1 | 0.00 | 0.00 | 0.00 | 26 | 996.6 |
| 20260903194559 | 36 | 146 | 11.3 | 19.3 | 0.00 | 0.00 | 0.00 | 25 | 996.8 |
| 20260903191600 | 36 | 252 | 17.7 | 22.5 | 0.00 | 0.00 | 0.00 | 27 | 997.3 |
| 20260903190051 | 36 | 46 | 6.4 | 16.1 | 0.00 | 0.00 | 0.00 | 27 | 997.7 |
| 20260903184551 | 35 | 211 | 9.7 | 32.2 | 0.00 | 0.00 | 0.00 | 28 | 998.0 |
| 20260903181556 | 35 | 324 | 8.0 | 30.6 | 0.00 | 0.00 | 0.00 | 29 | 998.7 |
| 20260903180056 | 35 | 234 | 12.9 | 29.0 | 0.00 | 0.00 | 0.00 | 30 | 999.1 |
| 20260903174540 | 34 | 281 | 12.9 | 24.1 | 0.00 | 0.00 | 0.00 | 30 | 999.1 |